Location: Newark
(41.8083°N, 72.2500°W)
Time: 01:37:00
(UTC+00:00)

Vanguard 1 Rocket - Pass Details

Date: 14 December 2021
Orbit: 651 x 4224 km, 34.3° (Epoch: 15 January)

Event Time Altitude Azimuth Distance (km) Brightness Sun altitude
Exits shadow 06:21:50 21° 103° (ESE) 3,916 10.6 -62.4°
Drops below altitude 10° 06:26:26 10° 98° (E) 5,317 11.5 -61.7°
Sets 06:31:55 0° 95° (E) 6,916 12.2 -60.8°
